When you browse on this site, cookies collect data to enhance your experience and personalize the content and advertising you see.
Visit our Privacy Policy to learn more. By continuing to use the site, you agree to this use of cookies and data.
  • Em Portugal
  • Lista de países
  • Para 7 dias
  • Temperatura da água
  • Mapas de satélite
  • Mapa do tempo
  • Widgets de tempo
  • user-avatar
    Iniciar Sessão

    Previsão horária em Yulara

    Hoje, 20 Julho, Sábado

    Tempo Temperatura Precipitação Vento Pressão Humidade
    00:00 +10°C° 0 mm 2 m/s 718 mmHg 35%
    01:00 +10°C° 0 mm 2 m/s 718 mmHg 35%
    02:00 +10°C° 0 mm 2 m/s 717 mmHg 35%
    03:00 +10°C° 0 mm 2 m/s 717 mmHg 34%
    04:00 +9°C° 0 mm 2 m/s 717 mmHg 35%
    05:00 +9°C° 0 mm 2 m/s 717 mmHg 35%
    06:00 +8°C° 0 mm 2 m/s 717 mmHg 36%
    07:00 +11°C° 0 mm 3 m/s 717 mmHg 31%
    08:00 +14°C° 0 mm 3 m/s 717 mmHg 26%
    09:00 +18°C° 0 mm 3 m/s 718 mmHg 20%
    10:00 +20°C° 0 mm 5 m/s 718 mmHg 18%
    11:00 +23°C° 0 mm 6 m/s 718 mmHg 15%
    12:00 +27°C° 0 mm 8 m/s 718 mmHg 13%
    13:00 +28°C° 0 mm 8 m/s 717 mmHg 13%
    14:00 +29°C° 0 mm 9 m/s 716 mmHg 13%
    15:00 +29°C° 0 mm 8 m/s 715 mmHg 12%
    16:00 +27°C° 0 mm 7 m/s 715 mmHg 15%
    17:00 +25°C° 0 mm 5 m/s 715 mmHg 18%
    18:00 +21°C° 0 mm 4 m/s 715 mmHg 21%
    19:00 +21°C° 0 mm 4 m/s 716 mmHg 22%
    20:00 +21°C° 0 mm 5 m/s 716 mmHg 23%
    21:00 +20°C° 0 mm 5 m/s 717 mmHg 23%
    22:00 +19°C° 0 mm 6 m/s 717 mmHg 29%
    23:00 +17°C° 0 mm 7 m/s 718 mmHg 34%

    Amanhã, 21 Julho, Domingo

    Tempo Temperatura Precipitação Vento Pressão Humidade
    00:00 +16°C° 0 mm 7 m/s 718 mmHg 40%
    01:00 +14°C° 0 mm 7 m/s 718 mmHg 47%
    02:00 +13°C° 0 mm 6 m/s 718 mmHg 54%
    03:00 +10°C° 0 mm 5 m/s 718 mmHg 61%
    04:00 +9°C° 0 mm 5 m/s 718 mmHg 64%
    05:00 +8°C° 0 mm 4 m/s 719 mmHg 67%
    06:00 +7°C° 0 mm 4 m/s 719 mmHg 70%
    07:00 +10°C° 0 mm 4 m/s 719 mmHg 63%
    08:00 +10°C° 0 mm 5 m/s 720 mmHg 56%
    09:00 +13°C° 0 mm 5 m/s 720 mmHg 48%
    10:00 +14°C° 0 mm 4 m/s 720 mmHg 42%
    11:00 +17°C° 0 mm 4 m/s 720 mmHg 36%
    12:00 +18°C° 0 mm 3 m/s 719 mmHg 30%
    13:00 +19°C° 0 mm 3 m/s 719 mmHg 27%
    14:00 +20°C° 0 mm 2 m/s 718 mmHg 24%
    15:00 +21°C° 0 mm 2 m/s 717 mmHg 21%
    16:00 +18°C° 0 mm 2 m/s 717 mmHg 27%
    17:00 +16°C° 0 mm 2 m/s 717 mmHg 32%
    18:00 +13°C° 0 mm 2 m/s 717 mmHg 37%
    19:00 +13°C° 0 mm 2 m/s 717 mmHg 37%
    20:00 +13°C° 0 mm 2 m/s 718 mmHg 36%
    21:00 +12°C° 0 mm 3 m/s 718 mmHg 36%
    22:00 +11°C° 0 mm 3 m/s 718 mmHg 37%
    23:00 +11°C° 0 mm 3 m/s 718 mmHg 38%

    Depois de amanhã, 22 Julho, Segunda-feira

    Tempo Temperatura Precipitação Vento Pressão Humidade
    00:00 +10°C° 0 mm 3 m/s 718 mmHg 40%
    01:00 +10°C° 0 mm 3 m/s 717 mmHg 41%
    02:00 +9°C° 0 mm 3 m/s 717 mmHg 42%
    03:00 +9°C° 0 mm 3 m/s 717 mmHg 44%
    04:00 +8°C° 0 mm 3 m/s 718 mmHg 46%
    05:00 +8°C° 0 mm 2 m/s 718 mmHg 48%
    06:00 +7°C° 0 mm 2 m/s 718 mmHg 50%
    07:00 +9°C° 0 mm 2 m/s 719 mmHg 45%
    08:00 +12°C° 0 mm 2 m/s 719 mmHg 41%
    09:00 +14°C° 0 mm 2 m/s 720 mmHg 36%
    10:00 +16°C° 0 mm 2 m/s 719 mmHg 33%
    11:00 +18°C° 0 mm 2 m/s 719 mmHg 31%
    12:00 +22°C° 0 mm 1 m/s 719 mmHg 29%
    13:00 +23°C° 0 mm 1 m/s 719 mmHg 27%
    14:00 +23°C° 0 mm 1 m/s 718 mmHg 25%
    15:00 +22°C° 0 mm 0 m/s 717 mmHg 23%
    16:00 +22°C° 0 mm 1 m/s 717 mmHg 27%
    17:00 +20°C° 0 mm 1 m/s 717 mmHg 31%
    18:00 +16°C° 0 mm 2 m/s 717 mmHg 36%
    19:00 +16°C° 0 mm 3 m/s 718 mmHg 34%
    20:00 +16°C° 0 mm 3 m/s 718 mmHg 31%
    21:00 +15°C° 0 mm 4 m/s 719 mmHg 29%
    22:00 +14°C° 0 mm 4 m/s 719 mmHg 29%
    23:00 +13°C° 0 mm 5 m/s 719 mmHg 29%

    23 Julho, Terça-feira

    Tempo Temperatura Precipitação Vento Pressão Humidade
    00:00 +12°C° 0 mm 5 m/s 720 mmHg 28%
    01:00 +10°C° 0 mm 5 m/s 720 mmHg 31%
    02:00 +11°C° 0 mm 4 m/s 719 mmHg 34%
    03:00 +10°C° 0 mm 4 m/s 719 mmHg 38%
    04:00 +8°C° 0 mm 4 m/s 720 mmHg 39%
    05:00 +8°C° 0 mm 4 m/s 720 mmHg 40%
    06:00 +8°C° 0 mm 4 m/s 720 mmHg 41%
    07:00 +10°C° 0 mm 5 m/s 721 mmHg 38%
    08:00 +11°C° 0 mm 6 m/s 721 mmHg 35%
    09:00 +14°C° 0 mm 6 m/s 722 mmHg 32%
    10:00 +17°C° 0 mm 6 m/s 722 mmHg 29%
    11:00 +20°C° 0 mm 6 m/s 722 mmHg 27%
    12:00 +22°C° 0 mm 6 m/s 722 mmHg 24%
    13:00 +23°C° 0 mm 5 m/s 721 mmHg 23%
    14:00 +25°C° 0 mm 5 m/s 721 mmHg 22%
    15:00 +26°C° 0 mm 4 m/s 720 mmHg 21%
    16:00 +23°C° 0 mm 4 m/s 720 mmHg 24%
    17:00 +21°C° 0 mm 5 m/s 720 mmHg 27%
    18:00 +19°C° 0 mm 5 m/s 720 mmHg 29%
    19:00 +17°C° 0 mm 5 m/s 721 mmHg 31%
    20:00 +16°C° 0 mm 5 m/s 722 mmHg 33%
    21:00 +15°C° 0 mm 5 m/s 722 mmHg 35%
    22:00 +14°C° 0 mm 5 m/s 722 mmHg 38%
    23:00 +13°C° 0 mm 6 m/s 722 mmHg 40%

    24 Julho, Quarta-feira

    Tempo Temperatura Precipitação Vento Pressão Humidade
    00:00 +13°C° 0 mm 6 m/s 722 mmHg 42%
    01:00 +12°C° 0 mm 5 m/s 722 mmHg 43%
    02:00 +10°C° 0 mm 5 m/s 722 mmHg 45%
    03:00 +10°C° 0 mm 4 m/s 722 mmHg 46%
    04:00 +10°C° 0 mm 4 m/s 722 mmHg 49%
    05:00 +8°C° 0 mm 4 m/s 723 mmHg 53%
    06:00 +8°C° 0 mm 4 m/s 723 mmHg 56%
    07:00 +9°C° 0 mm 5 m/s 724 mmHg 51%
    08:00 +11°C° 0 mm 6 m/s 724 mmHg 46%
    09:00 +12°C° 0 mm 7 m/s 724 mmHg 41%
    10:00 +16°C° 0 mm 7 m/s 724 mmHg 35%
    11:00 +18°C° 0 mm 7 m/s 724 mmHg 29%
    12:00 +22°C° 0 mm 7 m/s 724 mmHg 23%
    13:00 +22°C° 0 mm 6 m/s 723 mmHg 22%
    14:00 +23°C° 0 mm 6 m/s 723 mmHg 21%
    15:00 +25°C° 0 mm 5 m/s 722 mmHg 20%
    16:00 +22°C° 0 mm 5 m/s 722 mmHg 23%
    17:00 +20°C° 0 mm 4 m/s 722 mmHg 27%
    18:00 +18°C° 0 mm 4 m/s 722 mmHg 30%
    19:00 +17°C° 0 mm 4 m/s 723 mmHg 32%
    20:00 +15°C° 0 mm 4 m/s 723 mmHg 35%
    21:00 +14°C° 0 mm 4 m/s 724 mmHg 37%
    22:00 +13°C° 0 mm 4 m/s 723 mmHg 39%
    23:00 +12°C° 0 mm 4 m/s 723 mmHg 41%

    25 Julho, Quinta-feira

    Tempo Temperatura Precipitação Vento Pressão Humidade
    00:00 +12°C° 0 mm 4 m/s 723 mmHg 42%
    01:00 +11°C° 0 mm 3 m/s 723 mmHg 45%
    02:00 +11°C° 0 mm 3 m/s 723 mmHg 47%
    03:00 +10°C° 0 mm 3 m/s 722 mmHg 49%
    04:00 +10°C° 0 mm 3 m/s 723 mmHg 49%
    05:00 +10°C° 0 mm 3 m/s 723 mmHg 50%
    06:00 +10°C° 0 mm 3 m/s 723 mmHg 50%
    07:00 +12°C° 0 mm 3 m/s 723 mmHg 46%
    08:00 +13°C° 0 mm 3 m/s 724 mmHg 43%
    09:00 +14°C° 0 mm 3 m/s 724 mmHg 39%
    10:00 +18°C° 0 mm 3 m/s 724 mmHg 34%
    11:00 +20°C° 0 mm 3 m/s 724 mmHg 30%
    12:00 +22°C° 0 mm 3 m/s 723 mmHg 26%
    13:00 +24°C° 0 mm 2 m/s 723 mmHg 24%
    14:00 +25°C° 0 mm 2 m/s 722 mmHg 23%
    15:00 +25°C° 0 mm 2 m/s 722 mmHg 21%
    16:00 +23°C° 0 mm 2 m/s 722 mmHg 25%
    17:00 +20°C° 0 mm 2 m/s 721 mmHg 28%
    18:00 +18°C° 0 mm 3 m/s 721 mmHg 32%
    19:00 +17°C° 0 mm 3 m/s 722 mmHg 33%
    20:00 +17°C° 0 mm 3 m/s 722 mmHg 33%
    21:00 +15°C° 0 mm 4 m/s 723 mmHg 34%
    22:00 +14°C° 0 mm 4 m/s 722 mmHg 36%
    23:00 +13°C° 0 mm 4 m/s 722 mmHg 38%
    Mostrar mais